Wind_Speed
5 7 2 3 5 5 3 2 4 5 3 3 7 3 5 3 2 3 12 21 34 34 29 24 21 21 20 21 21 21 22 23 27 27 26 25 21 19 17 16 16 15 14 15 16 17 17 17 18
7 2 2 2 5 3 1 3 4 4 5 10 6 6 3 1 4 11 14 21 35 35 30 26 23 21 20 21 21 21 21 21 23 23 22 20 19 16 14 13 13 12 12 12 12 13 15 15 13
4 3 3 4 3 3 2 4 1 7 7 2 4 2 3 3 10 16 10 32 34 33 31 27 23 22 20 21 21 21 20 20 20 19 18 17 15 13 12 12 12 11 11 10 10 12 14 11 12
1 4 3 4 2 3 6 5 2 2 4 4 5 4 4 5 17 14 30 34 34 33 30 27 23 22 20 20 19 19 18 18 17 16 16 15 14 13 12 13 12 11 10 9 9 8 9 9 8
3 1 2 1 3 3 4 6 7 6 0 6 2 1 4 11 10 29 34 34 34 32 29 26 23 22 20 19 19 17 16 17 16 14 12 12 12 12 12 11 11 10 10 10 9 8 9 9 10
2 2 2 2 2 3 5 4 2 3 2 1 7 4 4 19 27 26 35 34 32 31 29 26 22 20 20 20 19 17 16 14 13 12 11 10 11 11 10 10 11 11 11 11 11 10 11 10 10
3 1 3 2 1 3 4 3 0 3 5 4 6 4 3 9 27 27 29 31 31 30 28 26 24 21 20 20 20 19 15 14 13 12 12 11 11 10 10 11 11 11 11 10 10 10 11 10 11
4 3 1 2 1 1 9 6 7 3 3 1 2 4 5 11 24 24 22 27 29 29 28 26 25 23 22 20 18 18 17 16 15 13 12 12 11 10 10 10 10 10 10 9 8 9 9 10 9
4 4 2 5 5 2 12 7 7 6 5 1 3 4 11 27 27 23 22 20 23 25 27 27 27 25 24 22 19 17 17 17 16 14 14 13 12 11 10 11 10 10 10 9 7 8 8 8 7
4 4 7 6 4 3 10 4 10 6 6 3 5 7 26 30 27 24 22 22 25 26 30 29 29 27 26 24 22 21 19 18 17 16 14 13 12 12 11 11 10 11 11 9 6 7 8 8 8
4 5 5 2 5 6 9 7 5 8 4 8 11 17 22 27 25 24 23 29 33 35 33 32 30 28 27 26 24 22 20 18 16 16 14 13 13 12 12 11 11 13 12 11 9 8 9 9 9
2 3 6 3 5 2 7 12 7 9 4 11 14 24 21 20 19 26 25 25 27 29 33 33 31 30 28 25 24 23 21 18 16 15 15 16 14 15 13 12 12 11 14 13 13 11 11 10 10
1 3 6 6 8 4 6 4 5 9 5 11 16 20 22 20 22 22 24 21 21 30 34 34 33 32 29 26 24 22 22 19 17 16 15 16 15 11 11 15 13 10 10 16 14 13 14 13 13
4 5 2 6 6 4 6 2 2 4 4 11 17 19 18 19 19 17 22 25 32 32 34 34 35 33 31 29 25 23 22 20 18 17 17 15 15 12 11 11 14 14 12 13 14 12 13 15 14
4 5 8 4 6 6 10 2 6 3 7 9 12 9 13 7 13 18 26 29 34 34 33 35 34 34 32 30 26 24 23 22 18 20 18 17 16 14 16 9 11 10 11 10 10 10 11 12 14
5 4 4 5 6 3 7 6 9 6 9 7 7 8 10 7 16 16 22 22 29 27 36 37 36 35 33 32 29 26 23 23 20 17 21 18 17 15 14 11 11 10 10 11 10 10 10 10 11
6 1 5 7 4 3 3 5 4 3 5 6 7 7 11 12 17 24 26 30 28 36 38 38 38 36 36 33 30 26 25 24 21 17 18 20 16 15 15 12 11 9 14 11 9 10 8 8 11
4 6 6 7 3 2 2 4 4 5 5 5 9 8 13 17 13 21 25 34 34 37 40 38 38 35 35 33 29 24 23 22 21 21 19 20 19 16 15 13 9 11 10 14 12 10 9 11 10
5 4 8 12 5 4 3 2 7 6 4 5 7 7 8 11 2 7 14 20 30 30 32 41 42 37 37 32 29 24 25 22 19 19 19 18 19 19 16 14 12 13 11 12 9 10 8 9 7
6 5 7 6 1 4 3 4 6 4 2 5 6 6 8 6 5 2 10 16 27 36 37 38 39 37 38 34 32 28 28 24 21 21 20 19 20 22 19 17 14 11 11 11 11 12 9 10 12
6 5 3 5 4 5 4 4 5 5 5 7 4 4 3 7 6 7 13 20 26 35 38 40 41 40 39 36 34 25 23 21 20 21 20 20 20 22 23 18 15 13 12 9 13 14 14 10 9
4 5 3 5 3 2 3 3 5 2 5 4 4 4 7 8 7 11 9 15 23 27 24 22 23 22 26 36 34 32 27 23 26 24 22 19 20 21 22 20 18 16 13 14 11 11 13 15 8
8 2 2 3 1 2 2 5 5 4 7 3 3 4 6 12 15 14 8 8 14 22 26 24 24 29 16 29 36 34 28 27 22 23 23 22 21 22 21 21 21 17 16 15 12 12 11 10 9
2 5 6 4 3 4 5 4 4 2 3 6 7 5 3 3 8 7 7 8 10 18 22 18 16 20 13 24 36 33 30 28 23 21 24 24 23 22 22 20 22 19 17 15 15 12 12 10 12
7 7 4 5 5 5 6 3 6 3 5 7 10 8 2 10 9 6 6 8 9 13 17 22 25 23 24 9 27 26 25 25 24 23 23 25 24 26 24 21 21 20 20 15 14 12 13 13 13
2 7 5 3 2 4 4 3 5 5 9 11 12 7 5 6 4 6 8 10 12 12 11 9 18 18 21 12 14 18 22 25 28 26 24 23 25 25 25 23 22 23 21 19 18 16 14 14 13
2 1 3 6 2 2 2 5 8 4 8 8 7 6 7 8 5 6 8 10 13 13 18 16 19 23 24 23 20 21 25 22 28 25 24 23 22 24 23 22 25 24 23 22 21 19 17 14 12
6 4 4 4 2 1 3 4 6 6 4 9 7 8 9 5 4 5 6 8 10 11 17 22 24 20 23 22 22 21 19 25 27 25 24 23 25 23 26 26 25 26 23 23 21 19 17 15 14
5 3 6 5 4 4 1 6 6 6 8 8 7 8 9 8 8 2 5 9 11 10 11 13 22 23 22 21 26 23 23 28 26 26 26 24 24 22 21 21 22 25 23 25 25 22 20 19 16
2 2 4 5 4 0 3 5 8 8 9 3 7 9 9 9 9 6 4 10 11 12 15 12 13 17 22 26 27 28 30 31 27 28 24 24 25 25 24 24 24 23 23 25 26 23 21 19 16
Wind_Direction
140 139 107 113 57 61 293 5 297 316 111 190 143 143 171 50 195 208 149 156 159 160 164 167 165 156 150 144 142 144 145 146 147 145 144 144 139 138 136 131 128 129 127 129 130 130 128 129 127
162 125 106 83 89 122 281 255 249 123 114 121 116 113 70 110 85 120 128 164 160 160 163 166 170 160 153 149 147 148 149 151 150 149 148 146 146 147 142 140 140 141 141 141 139 135 136 138 137
161 25 73 78 65 132 193 206 194 48 23 349 104 70 104 142 117 140 155 156 160 161 164 166 170 163 158 156 154 154 156 154 153 151 152 153 159 156 160 161 158 161 154 161 161 157 152 145 139
213 6 60 82 124 241 171 146 69 49 355 11 79 67 84 180 146 161 150 158 161 162 168 164 169 166 163 159 155 157 160 158 156 156 156 157 158 158 169 169 175 179 179 191 188 196 197 204 198
329 44 43 117 205 198 269 181 185 125 341 46 79 74 65 125 151 148 154 161 163 164 168 167 170 170 165 161 160 163 162 162 160 162 166 170 171 179 178 177 187 196 202 212 209 210 219 208 201
10 77 33 15 15 135 207 231 33 95 131 89 113 100 125 139 140 152 158 165 167 165 168 170 171 173 171 168 166 168 174 170 172 172 177 184 184 187 189 194 204 212 214 217 223 222 229 224 224
180 195 233 68 31 137 155 175 80 163 162 230 145 91 57 148 150 158 159 167 168 168 169 171 173 176 174 176 175 176 179 181 183 189 189 195 196 199 202 206 210 215 215 216 217 218 222 225 226
169 132 8 48 126 202 142 160 134 172 273 77 354 150 175 169 151 152 157 165 167 172 171 172 173 177 178 178 182 183 184 190 193 197 200 204 205 213 220 216 212 212 209 211 213 212 218 222 221
147 75 186 201 182 147 141 169 142 113 150 160 189 145 152 150 145 142 146 156 166 173 177 177 174 176 178 181 181 186 188 194 199 203 209 210 210 211 223 225 213 211 215 217 216 220 220 220 220
117 115 216 203 191 161 180 141 152 163 162 190 185 101 138 151 154 154 162 167 173 178 183 183 182 181 182 185 184 191 194 200 202 209 213 217 215 218 220 220 223 217 218 224 213 217 223 218 223
177 161 234 237 226 200 156 154 179 142 206 202 178 158 148 157 165 168 178 179 182 185 183 188 187 185 186 188 189 194 199 205 213 216 218 219 221 217 218 221 221 224 220 219 226 222 227 231 232
246 177 175 226 237 215 158 157 174 177 238 161 159 163 156 168 178 178 181 184 184 185 187 190 190 188 191 193 196 199 201 209 215 221 219 219 221 224 231 230 221 229 223 222 225 234 235 233 234
300 268 192 217 201 207 142 181 169 209 152 141 146 165 165 174 185 189 186 182 185 189 190 194 195 195 194 197 201 203 204 207 212 216 219 222 225 226 228 226 226 240 239 226 227 233 235 237 242
258 283 225 244 202 218 176 108 55 249 132 148 151 173 178 174 176 173 187 184 196 197 196 195 200 201 199 199 201 202 204 207 213 220 222 224 223 233 217 226 233 246 241 227 228 231 234 237 241
322 333 329 216 214 222 108 22 249 174 149 152 169 162 173 159 161 192 196 192 194 198 197 198 199 202 202 201 203 206 211 213 217 225 229 228 223 232 230 241 236 243 228 225 214 226 229 236 238
11 45 1 266 132 219 145 241 256 195 148 155 191 173 132 169 170 198 206 217 198 193 201 199 200 203 207 210 205 209 213 220 218 228 229 227 224 232 226 249 247 242 221 216 219 220 229 234 229
12 236 279 313 149 127 125 245 231 112 111 199 217 208 163 185 200 197 197 203 209 200 205 204 202 207 210 215 211 212 219 213 212 217 219 221 224 224 227 247 259 246 220 215 228 227 229 236 238
298 332 302 274 223 57 124 233 104 153 153 212 234 203 195 203 195 196 197 205 204 207 205 205 201 207 206 210 207 213 207 209 217 220 220 215 222 227 233 241 244 233 229 226 235 235 246 246 262
270 260 284 287 242 104 227 49 125 150 162 209 229 214 217 204 74 194 194 208 212 208 201 200 196 204 204 206 203 204 203 205 207 212 217 218 218 221 227 230 233 234 233 223 224 232 240 233 242
244 266 275 277 68 121 168 230 83 75 6 344 245 224 231 272 349 327 243 231 202 205 210 203 204 205 203 206 205 207 212 210 217 219 225 225 221 228 228 228 235 239 236 240 225 220 229 242 232
269 213 227 240 9 27 125 27 65 12 18 329 312 227 212 227 248 259 224 232 206 197 204 206 204 205 205 206 206 208 218 217 220 220 219 222 224 235 228 229 237 236 235 231 219 222 221 242 223
248 198 205 283 58 275 113 262 112 150 225 262 244 233 218 205 205 238 254 246 216 205 199 195 196 199 203 208 207 208 210 211 223 225 223 218 223 227 223 227 235 231 225 227 236 216 233 227 214
231 101 57 348 135 34 44 89 258 117 230 227 231 202 216 225 211 208 225 240 220 185 184 187 193 197 214 221 214 213 218 222 228 229 227 223 224 221 226 228 226 227 226 234 226 219 229 228 235
62 63 42 57 52 19 311 124 276 283 275 298 282 272 242 210 126 151 198 194 165 161 160 173 217 210 223 236 225 218 218 224 228 225 225 221 222 221 223 224 226 229 238 237 230 232 234 240 246
73 59 352 355 8 229 327 33 245 273 298 249 272 259 219 132 144 154 183 175 158 170 179 195 211 179 210 265 225 224 235 243 245 229 226 222 223 224 223 222 221 227 225 232 230 242 238 242 251
127 138 148 230 238 271 334 329 262 229 282 271 265 266 174 140 133 191 203 191 168 161 158 213 212 192 205 240 217 225 237 246 252 239 226 224 225 228 229 225 224 226 229 229 232 235 240 248 251
135 54 181 105 360 52 262 283 295 232 285 280 282 268 159 100 117 239 232 210 188 184 195 198 199 194 211 223 235 236 233 243 253 237 232 230 233 232 227 232 226 226 227 233 231 233 241 244 249
112 149 54 16 124 258 302 275 240 258 230 276 275 355 357 23 72 217 236 213 217 186 207 219 225 230 228 238 245 257 249 245 255 239 234 233 233 234 235 233 229 229 239 233 236 237 241 247 254
7 17 65 112 107 157 227 267 229 208 194 234 262 344 329 339 342 276 201 230 225 231 214 231 242 243 246 249 240 244 254 247 256 245 232 233 232 229 225 225 234 236 241 239 240 240 243 246 248
158 79 108 113 275 13 156 271 325 166 194 327 329 310 298 328 331 313 175 204 216 243 251 270 264 258 251 254 237 237 258 262 251 243 239 234 236 233 236 234 234 237 240 240 234 237 241 248 242
Height
769 771 773 774 803 805 812 802 786 784 778 769 765 774 781 779 788 808 786 790 794 799 806 811 815 816 820 822 825 827 828 829 830 832 833 834 835 836 837 838 839 840 840 841 841 842 843 844 844
768 769 770 777 810 823 817 799 792 775 767 764 765 768 777 787 779 785 790 793 795 800 806 811 815 818 821 823 826 828 830 831 832 832 834 835 835 837 838 839 840 841 842 843 844 844 844 845 845
767 768 777 792 811 821 815 792 783 776 768 765 770 767 774 785 782 785 788 793 797 802 806 810 815 819 821 823 825 827 830 832 833 834 834 835 836 838 838 839 840 841 843 844 844 845 846 847 847
769 770 777 800 807 791 784 783 775 774 770 767 769 782 774 775 780 783 788 795 799 802 808 811 816 820 821 823 825 828 830 832 833 833 835 835 836 837 838 839 840 841 843 843 845 846 847 848 849
771 775 793 800 799 783 776 771 767 776 778 774 771 785 787 782 782 784 789 795 800 804 809 814 817 820 822 824 826 828 831 832 832 834 835 836 837 837 839 841 841 841 842 842 844 846 846 847 849
779 782 800 806 788 777 774 768 770 777 778 777 779 783 787 783 786 790 792 797 801 805 809 814 818 821 823 825 826 829 830 833 833 834 835 836 837 839 840 842 842 842 842 843 844 846 845 846 847
781 790 798 789 791 788 779 771 780 782 782 779 772 790 790 788 788 793 795 799 803 808 810 814 817 821 823 826 827 828 831 833 834 834 835 836 838 839 840 841 842 842 843 843 843 844 844 846 846
770 781 785 785 792 786 772 771 770 780 784 772 771 790 798 790 792 796 801 804 806 809 811 813 816 819 822 824 827 828 830 832 832 833 834 836 838 839 840 841 842 842 842 842 842 843 843 845 846
759 796 803 786 786 775 766 771 765 765 775 775 773 774 775 786 792 798 802 807 808 810 812 814 815 818 821 823 826 828 829 830 831 832 833 836 838 838 840 841 841 842 842 841 842 843 842 843 845
771 798 787 765 762 769 763 764 765 771 776 779 775 774 779 786 792 796 801 804 806 808 810 813 814 816 820 822 824 826 828 829 829 831 833 835 837 837 838 840 840 841 841 840 841 842 841 842 844
764 785 766 758 754 751 760 765 758 770 783 772 774 774 777 785 791 794 798 798 798 802 807 810 813 815 818 820 822 824 827 828 829 830 831 833 835 835 836 837 838 839 839 839 840 841 841 842 844
770 756 757 753 751 753 758 756 764 763 763 756 762 767 773 782 787 788 794 798 800 803 806 810 813 814 817 820 821 823 825 827 828 829 831 832 833 834 834 835 836 837 838 838 838 839 840 840 842
764 755 751 747 749 752 751 758 762 764 757 756 762 770 772 778 784 790 792 797 800 800 803 806 811 812 815 818 820 822 824 825 826 828 829 830 832 832 832 833 835 835 835 835 837 838 838 839 840
760 757 754 749 751 751 760 764 761 762 758 761 766 771 774 777 784 789 792 793 795 799 801 803 807 810 813 815 818 819 821 822 825 826 827 829 831 831 832 832 833 833 832 833 836 837 837 837 838
755 766 759 754 751 756 758 779 772 758 761 767 768 772 776 781 784 785 786 785 788 793 798 801 804 807 810 813 816 817 819 820 822 823 825 826 829 829 830 830 830 830 830 831 833 835 836 837 837
772 774 789 755 751 748 759 790 766 760 764 771 768 770 775 776 774 776 781 788 788 792 793 796 800 804 808 810 812 814 816 817 819 821 822 824 826 827 828 829 828 829 830 830 831 833 834 836 837
792 806 794 772 750 754 763 780 763 766 771 775 771 768 771 770 765 765 769 778 785 785 788 793 797 799 803 807 809 811 813 815 818 820 821 823 824 826 827 827 827 828 829 830 831 832 833 833 834
807 804 789 792 761 758 769 771 771 772 772 772 771 770 767 763 764 763 767 772 777 781 784 789 794 796 800 804 808 811 813 814 816 817 819 821 822 824 826 826 826 828 828 829 829 830 831 832 833
789 797 800 779 757 766 776 775 777 775 774 774 772 772 767 762 766 767 768 772 778 781 783 783 787 793 797 802 805 808 810 813 814 816 817 819 820 822 824 825 826 827 826 827 827 829 829 830 831
791 800 795 772 755 763 780 780 778 774 774 774 773 772 771 770 765 764 765 771 774 776 777 782 785 788 793 797 802 805 808 810 812 814 815 817 819 820 822 823 825 826 826 825 826 827 828 828 830
787 790 781 781 767 769 777 792 792 786 779 772 765 766 767 771 772 768 761 765 769 769 770 773 778 783 788 793 799 804 808 809 809 810 812 813 816 817 820 822 823 824 824 823 824 825 826 826 827
794 764 765 769 784 805 776 824 801 797 790 781 773 766 765 765 765 759 759 761 763 763 769 774 778 783 790 790 795 798 800 803 804 806 809 811 813 815 817 820 821 821 822 821 822 822 823 825 823
774 754 765 766 784 787 793 814 797 798 797 786 776 767 761 754 751 754 756 759 761 763 765 768 774 778 787 790 792 793 797 800 804 804 806 808 810 812 815 817 818 820 820 821 821 820 821 821 821
749 762 780 792 802 825 808 803 809 802 790 783 769 765 761 750 747 752 755 758 764 766 768 769 773 771 779 789 792 791 791 797 799 802 803 804 808 809 812 814 816 818 818 819 819 819 819 819 818
769 793 831 827 837 832 813 807 799 787 781 775 769 761 759 751 751 752 754 758 764 766 767 769 776 775 781 787 787 788 791 795 796 798 799 801 803 805 806 809 812 814 815 816 816 817 816 816 816
769 788 830 832 842 828 803 813 796 781 776 769 761 758 755 754 752 751 751 755 761 766 768 772 771 772 776 781 782 784 788 791 792 793 794 796 798 800 802 805 807 809 810 812 813 814 814 814 814
773 790 780 820 824 829 828 804 781 778 777 765 756 751 759 750 751 750 749 751 760 764 766 770 768 766 771 776 777 779 784 785 787 790 791 792 794 796 799 801 802 805 807 808 809 810 811 811 812
759 766 799 813 826 825 826 816 808 782 780 768 757 752 751 749 749 749 748 751 756 764 767 767 771 773 772 774 774 778 782 783 784 786 788 788 790 792 794 796 799 801 803 804 806 808 809 809 809
776 785 795 806 819 835 839 823 775 773 775 769 760 757 756 751 750 747 747 750 753 758 765 765 769 773 775 775 777 779 782 782 782 782 784 784 786 788 789 791 794 796 798 800 802 804 806 806 806
759 772 793 818 815 825 826 810 771 768 768 772 767 762 759 756 754 749 749 749 752 755 757 757 763 770 772 777 777 779 779 778 776 777 779 781 782 784 786 787 789 792 793 795 798 800 802 802 803